Regional Weather Roundup
Issued by NWS Upton, NY

Current Version | Previous Version | Text Only | Print | Product List | Glossary On
Versions: 1 2 3 4 5 6 7 8 9 10 11 12 13 14 15 16 17 18 19 20 21 22 23 24 25 26 27
000
ASUS41 KOKX 232208
RWROKX

REGIONAL WEATHER ROUNDUP
NATIONAL WEATHER SERVICE NEW YORK NY
500 PM EST THU FEB 23 2017

NOTE: "FAIR" INDICATES FEW OR NO CLOUDS BELOW 12,000 FEET WITH NO
SIGNIFICANT WEATHER AND/OR OBSTRUCTIONS TO VISIBILITY.

NYZ071-072-176-178-NJZ106-104-232300-
NEW YORK CITY METRO AREA

CITY           SKY/WX    TMP DP  RH WIND       PRES   REMARKS
Central Park   CLEAR     61  51  70 S7        29.84R
Wall St Helipt NOT AVBL
LaGuardia APRT PTCLDY    63  51  65 S9        29.82R
Kennedy INTL   PTCLDY    53  50  89 CALM      29.84R
Breezy Point     N/A     48 N/A N/A S12         N/A
Newark/Liberty PTCLDY    62  50  64 SE6       29.81R
Teterboro      CLEAR     66  52  60 S10       29.80R
$$

NYZ177-179-078>081-232300-
LONG ISLAND NEW YORK

CITY           SKY/WX    TMP DP  RH WIND       PRES   REMARKS
Jones Beach      N/A     48 N/A N/A S10G17      N/A
Matinecock PT    N/A     61 N/A N/A S8          N/A
Farmingdale    CLEAR     54  48  80 SW8       29.85R
MacArthur/ISP  PTCLDY    52  48  86 SW12      29.84R
Shirley        MOCLDY    47  47 100 S7        29.86R FOG
Westhampton    FOG       47  45  93 SW7       29.87R VSB 1/4
Southampton      N/A     45  45 100 SW6       29.83R
Bridgehampton  NOT AVBL
East Hampton   FOG       46  45  99 SW9       29.85R VSB 1/2
Montauk          N/A     47  45  93 SW13G20   29.86R
$$

NYZ052-065-067-232300-
HUDSON VALLEY

CITY           SKY/WX    TMP DP  RH WIND       PRES   REMARKS
White Plains   CLEAR     59  49  69 S10       29.81R
Newburgh       PTCLDY    68  54  60 SW17G23   29.79R
Montgomery     PTCLDY    67  52  58 SW12      29.77R
Poughkeepsie   PTCLDY    66  49  54 S8        29.76R
Albany         PTCLDY    67  46  47 S8        29.72S
$$

NJZ001-105-106-008-010-013-015-019>022-104-232300-
NEW JERSEY

CITY           SKY/WX    TMP DP  RH WIND       PRES   REMARKS
Newark/Liberty PTCLDY    62  50  64 SE6       29.81R
Teterboro      CLEAR     66  52  60 S10       29.80R
Caldwell       CLEAR     68  52  56 SW6       29.81R
Somerville     CLEAR     68  52  56 S8        29.79R
Linden         NOT AVBL
Sussex         CLEAR     66  52  60 SW7G16    29.80R
Andover          N/A     67  51  56 VRB5      29.80R
Trenton        CLEAR     70  53  54 SW13      29.80F
Millville      CLEAR     66  53  63 VRB6      29.85R
Atlantic City  CLEAR     62  49  62 S13       29.86R
Wrightstown    PTCLDY    71  53  51 W13       29.80R
Toms River     MOCLDY    68  54  60 S8        29.84R
Belmar         MOCLDY    64  53  67 S8        29.84R
$$

PAZ047>061-062-071-232300-
EASTERN PENNSYLVANIA

CITY           SKY/WX    TMP DP  RH WIND       PRES   REMARKS
Philadelphia   PTCLDY    72  52  49 SW15      29.83R
Allentown      CLEAR     71  52  50 SW9       29.79R
Scranton       MOCLDY    69  51  52 W10       29.79R
$$

CTZ002-004>006-009-010-012-RIZ004-006-007-MAZ004-011-015-232300-
SOUTHERN NEW ENGLAND
 IN CT

CITY           SKY/WX    TMP DP  RH WIND       PRES   REMARKS
Bradley INTL   PTCLDY    58  49  72 S14       29.78R
Hartford       CLEAR     55  49  80 S12       29.79R
Danbury        CLEAR     61  49  64 S8        29.81R
Wtrbury/Oxford PTCLDY    59  46  63 S10       29.81S
Bridgeport     CLEAR     47  41  80 E6        29.82R
Meriden        CLEAR     56  48  74 S8        29.81R
New Haven      CLEAR     51  46  83 S3        29.82R
Chester          N/A     54  50  87 S8        29.82S
Groton         CLOUDY    49  48  97 SW12      29.83R FOG
Wilimantic     CLEAR     59  51  75 S8        29.80R

 IN RI

CITY           SKY/WX    TMP DP  RH WIND       PRES   REMARKS
Providence     PTCLDY    57  49  74 SW12      29.80R
Block Island   CLOUDY    47  45  93 SW16      29.85R
Westerly       CLOUDY    48  42  80 S9        29.84R
 IN MA

CITY           SKY/WX    TMP DP  RH WIND       PRES   REMARKS
Boston         PTCLDY    62  50  64 S15       29.74R
Worcester      CLEAR     59  46  62 SW16      29.76R
Westfield      CLEAR     59  48  67 S10       29.75R
Provincetown   CLEAR     48  46  93 SW17G24   29.80S
Nantucket      CLEAR     47  43  86 SW16      29.87R
$$

ANZ330-335-338-340-345-350-353-355-232300-
COASTAL MARINE OBSERVATIONS


STATION/POSITION TIME  SKY/WX   TEMP    WIND        PRES    VSBY  WAVE
                                AIR SEA DIR/SP/G                  HT/PER
                 (UTC)          (F)     (DEG/KT/KT) (MB)    (MI)  (FT/S)
NY HARB ENTRANCE 2050            48 44  180/ 12/ 12 1009.6          3/11
20 S FIRE ISLAND 2150            47 44  200/ 12/ 14 1010.7          4/11
GREAT SOUTH BAY  NOT AVBL
23 SSW MONTAUK P 2050            49 46              1010.8          4/10
15 E BARNEGAT LI 2130               43                N/A           4/11
HUDSON CANYON    2050               49              1011.9          4/11
KINGS POINT      2148            57 42              1009.7
EXECUTION ROCKS  NOT AVBL
CENTRAL LI SOUND NOT AVBL
EASTERN LI SOUND NOT AVBL
ROBBINS REEF     2148            54     170/  5/  5 1010.0
$$


>>>>>>>>>>>>>>>>>>>>>>>>>>>> KEY <<<<<<<<<<<<<<<<<<<<<<<<<<<
>                                                          <
>     SKY/WX - Sky Condition/Present Weather               <
>     TMP    - Temperature in Fahrenheit                   <
>     DP     - Dew Point in Fahrenheit                     <
>     RH     - Relative Humidity in Percent                <
>     WIND   - Direction (from) and Speed in MPH           <
>     PRES   - Mean Sea Level Pressure (inches of Hg)      <
>     WCI    - Wind Chill Index                            <
>     VSB    - VISIBILITY IN MILES                         <
>     HX     - HEAT INDEX                                  <
>     TC     - TEMPERATURE IN CELSIUS                      <
>     VRB    - VARIABLE WIND DIRECTION                     <
>                                                          <
>>>>>>>>>>>>>>>>>>>>>>>>>>>> KEY <<<<<<<<<<<<<<<<<<<<<<<<<<<




USA.gov is the U.S. government's official web portal to all federal, state and local government web resources and services.